Weather History for Quantico, VA

Change the Weather History Date:

Friday, January 25, 2013

  Actual Average Record
Temperature  
Mean Temperature 20 °F -  
Max Temperature 24 °F 39 °F 53 °F (1997)
Min Temperature 16 °F 24 °F 15 °F (2004)
Degree Days  
Heating Degree Days 45    
Moisture  
Dew Point 11 °F    
Average Humidity 66    
Maximum Humidity 80    
Minimum Humidity 46    
Precipitation  
Precipitation 0.00 in - - ()
Sea Level Pressure  
Sea Level Pressure 30.32 in    
Wind  
Wind Speed 6 mph (WSW)    
Max Wind Speed 12 mph    
Max Gust Speed 22 mph    
Visibility 9 miles    
Events Snow    
Averages and records for this station are not official NWS values.
T = Trace of Precipitation, MM = Missing Value Source: NWS Daily Summary

Daily Weather History Graph

Daily Weather History Graph

Search for Another Location

Airport:

Trip Planner

Search our weather history database for the weather conditions in past years. The results will help you decide how hot, cold, wet, or windy it might be!

Date:

Astronomy

Jan. 25, 2013 Rise Set
Actual Time 7:19 AM EST 5:23 PM EST
Civil Twilight 6:51 AM EST 5:52 PM EST
Nautical Twilight 6:19 AM EST 6:24 PM EST
Astronomical Twilight 5:48 AM EST 6:55 PM EST
Moon 4:18 PM EST (1/25) 5:58 AM EST (1/25)
Length of Visible Light 11h 00m
Length of Day
10h 03m
Waxing Gibbous, 98% of the Moon is Illuminated
Jan 25
Waxing Gibbous
Jan 26
Full
Feb 3
Last Quarter
Feb 10
New
Feb 17
First Quarter

Hourly Weather History & Observations

Time (EST) Temp. Windchill Dew Point Humidity Pressure Visibility Wind Dir Wind Speed Gust Speed Precip Events Conditions
12:56 AM 16.0 °F 7.4 °F 8.1 °F 71% 30.56 in 10.0 mi NW 5.8 mph - N/A   Clear
1:56 AM 16.0 °F 8.8 °F 7.0 °F 68% 30.55 in 10.0 mi NW 4.6 mph - N/A   Clear
2:56 AM 16.0 °F - 8.1 °F 71% 30.53 in 10.0 mi Calm Calm - N/A   Clear
3:56 AM 16.0 °F 7.4 °F 9.0 °F 74% 30.53 in 10.0 mi NW 5.8 mph - N/A   Clear
4:56 AM 17.1 °F 7.6 °F 9.0 °F 71% 30.53 in 10.0 mi WNW 6.9 mph - N/A   Clear
5:56 AM 18.0 °F 9.8 °F 7.0 °F 62% 30.53 in 10.0 mi WNW 5.8 mph - N/A   Clear
6:56 AM 17.1 °F 11.7 °F 7.0 °F 65% 30.51 in 10.0 mi WNW 3.5 mph - N/A   Mostly Cloudy
7:56 AM 18.0 °F 12.7 °F 10.0 °F 71% 30.51 in 10.0 mi NW 3.5 mph - N/A   Mostly Cloudy
8:56 AM 19.9 °F 14.9 °F 9.0 °F 62% 30.48 in 10.0 mi WNW 3.5 mph - N/A   Mostly Cloudy
9:56 AM 21.9 °F 12.5 °F 8.1 °F 55% 30.45 in 10.0 mi SSW 8.1 mph - N/A   Overcast
10:56 AM 21.9 °F 14.5 °F 3.9 °F 46% 30.44 in 10.0 mi SW 5.8 mph - N/A   Overcast
11:56 AM 23.0 °F 13.1 °F 6.1 °F 48% 30.39 in 10.0 mi South 9.2 mph - N/A   Overcast
12:56 PM 24.1 °F 13.7 °F 7.0 °F 48% 30.33 in 10.0 mi South 10.4 mph - N/A   Overcast
1:56 PM 24.1 °F 14.4 °F 7.0 °F 48% 30.27 in 10.0 mi SSW 9.2 mph 19.6 mph 0.00 in Snow Light Snow
2:56 PM 24.1 °F 13.1 °F 8.1 °F 51% 30.24 in 10.0 mi SW 11.5 mph 21.9 mph 0.00 in Snow Light Snow
3:56 PM 24.1 °F 14.4 °F 12.9 °F 62% 30.22 in 8.0 mi SW 9.2 mph 20.7 mph 0.00 in Snow Light Snow
4:47 PM 23.0 °F 11.7 °F 15.8 °F 74% 30.19 in 2.0 mi SSW 11.5 mph - 0.00 in Snow Light Snow
4:56 PM 23.0 °F 12.4 °F 16.0 °F 74% 30.19 in 2.0 mi SSW 10.4 mph - 0.00 in Snow Light Snow
5:35 PM 23.0 °F 13.9 °F 17.6 °F 80% 30.17 in 7.0 mi SSW 8.1 mph - 0.00 in Snow Light Snow
5:56 PM 23.0 °F 14.7 °F 16.0 °F 74% 30.16 in 10.0 mi SSW 6.9 mph - 0.00 in   Overcast
6:41 PM 23.0 °F 13.9 °F 15.8 °F 74% 30.14 in 10.0 mi SSW 8.1 mph - N/A   Overcast
6:56 PM 23.0 °F 15.8 °F 16.0 °F 74% 30.16 in 10.0 mi SW 5.8 mph - N/A   Overcast
7:56 PM 23.0 °F 17.0 °F 16.0 °F 74% 30.14 in 10.0 mi WSW 4.6 mph - N/A   Overcast
8:56 PM 23.0 °F 17.0 °F 16.0 °F 74% 30.12 in 10.0 mi WSW 4.6 mph - N/A   Overcast
9:56 PM 23.0 °F - 16.0 °F 74% 30.12 in 10.0 mi Calm Calm - N/A   Overcast
10:56 PM 24.1 °F - 16.0 °F 71% 30.12 in 10.0 mi Calm Calm - N/A   Overcast
11:56 PM 24.1 °F - 16.0 °F 71% 30.12 in 10.0 mi Calm Calm - N/A   Overcast